Wind_Speed
12 13 13 13 13 12 13 14 15 16 16 15 13 11 9 8 6 5 5 4 3 4 4 5 5 5 5 5 6 9 11 11 12 12 12 12 13 13 13 13 13 13 13
9 11 12 12 12 12 12 13 13 14 15 15 14 12 10 9 7 5 4 4 3 3 4 4 5 5 6 5 6 7 9 10 10 11 11 11 11 12 14 14 14 14 14
7 9 11 11 11 11 11 12 12 13 14 14 14 13 11 9 8 6 5 4 3 3 3 4 5 5 6 7 7 7 8 7 8 8 9 9 9 10 12 12 13 13 13
6 7 9 10 10 10 11 11 11 12 13 13 13 13 12 11 9 7 5 4 3 3 2 3 4 5 6 7 8 9 9 9 8 7 7 7 6 7 8 10 11 12 12
6 6 7 8 9 9 9 10 10 11 11 12 12 13 12 12 10 8 6 4 3 2 2 3 4 5 5 7 8 10 10 10 9 8 7 6 6 5 5 7 9 11 11
6 6 6 7 7 7 7 8 8 9 10 10 10 11 12 11 11 9 7 5 3 3 2 3 3 4 5 6 8 11 12 11 10 9 8 6 5 5 4 5 7 9 11
6 6 5 5 5 6 6 7 7 7 8 8 8 9 10 11 10 10 8 6 4 2 2 2 2 3 4 5 7 10 12 13 12 11 9 8 6 5 4 3 4 6 9
5 5 5 4 3 3 4 5 5 6 6 6 7 7 8 9 10 10 9 7 5 3 1 1 2 2 2 3 5 9 12 13 13 12 11 10 8 6 5 4 4 6 7
4 5 5 4 3 1 1 2 3 4 4 5 5 5 5 7 8 8 8 7 6 4 2 1 1 1 1 1 3 7 10 12 13 13 12 11 11 10 8 7 6 7 8
2 4 5 4 4 3 3 2 2 2 3 4 4 3 3 4 5 6 7 7 6 5 4 2 1 1 1 1 3 5 9 11 12 13 13 12 12 11 10 10 9 9 9
2 1 3 5 5 6 6 5 5 4 4 4 4 4 3 2 2 3 4 5 5 5 4 4 3 2 1 1 3 4 7 9 11 12 12 13 13 13 12 11 10 10 9
1 1 3 5 6 7 8 8 8 8 7 6 6 6 5 4 2 1 2 2 3 3 4 3 3 2 1 2 4 5 6 8 10 11 12 13 13 13 12 12 11 10 9
3 3 4 6 7 8 9 10 10 10 10 9 9 8 8 7 6 4 3 2 2 2 2 2 2 1 1 3 5 6 7 8 9 11 11 12 13 13 13 12 12 10 9
6 6 7 8 9 10 10 11 12 12 12 12 12 12 10 9 9 8 7 6 4 3 3 2 2 2 2 3 5 7 9 10 11 12 12 13 14 14 14 14 13 13 12
10 10 10 11 11 12 13 13 13 14 14 15 15 14 13 12 11 11 10 9 8 6 5 5 4 4 4 5 6 8 10 12 14 15 15 15 16 16 16 17 17 16 15
15 14 14 14 14 14 15 15 15 15 16 16 16 16 16 15 14 13 13 12 11 10 9 8 7 6 6 7 8 9 10 12 14 16 18 19 20 20 20 20 20 20 19
19 18 17 17 17 17 16 17 17 17 17 17 18 18 18 17 16 16 15 15 14 14 13 12 11 10 9 9 10 11 12 13 15 16 18 21 22 24 24 24 24 24 23
22 21 20 20 19 19 18 18 19 18 18 18 18 19 20 19 18 18 17 17 17 16 16 15 14 13 13 12 12 13 13 15 16 17 18 20 22 24 25 26 27 27 27
25 24 23 22 21 20 20 20 20 20 20 19 19 20 21 21 20 19 19 19 19 18 18 17 17 16 16 16 16 16 16 17 17 18 19 20 22 23 24 25 26 27 27
28 27 25 24 24 24 23 23 23 23 22 22 22 22 23 23 22 21 20 20 20 20 20 20 19 19 19 19 19 19 19 19 19 20 20 21 22 24 24 25 25 25 26
32 30 28 27 27 27 27 27 26 26 25 25 25 25 25 25 24 23 22 21 21 21 21 22 22 22 22 22 21 21 21 21 22 22 22 22 23 24 25 25 25 24 25
35 33 32 30 30 30 30 31 31 29 29 29 29 28 28 28 27 25 24 23 22 22 23 23 23 24 24 24 23 23 23 24 24 23 23 23 24 25 25 25 25 24 24
39 38 36 35 34 34 34 36 36 35 33 33 33 32 31 31 29 27 26 25 24 24 24 24 24 24 25 25 25 25 26 26 26 25 25 24 25 25 25 25 25 24 24
40 40 40 39 38 37 37 38 40 41 39 37 36 34 33 32 30 28 27 26 25 25 25 24 24 25 25 26 26 26 27 28 29 27 27 26 25 25 25 25 25 24 24
40 41 42 42 41 40 40 40 43 44 43 41 38 36 34 33 31 28 27 27 26 25 25 25 25 25 25 26 26 27 27 28 29 29 29 28 27 26 25 25 25 24 24
38 40 42 43 43 42 42 42 45 46 45 43 40 38 37 34 31 28 27 26 26 25 25 25 25 24 24 25 26 27 27 27 29 29 29 29 28 27 26 27 27 26 25
Wind_Direction
79 76 77 80 80 77 72 65 60 57 57 57 59 63 69 78 87 98 113 129 153 173 184 191 195 200 198 193 204 210 215 221 225 230 232 235 237 241 244 246 245 244 244
84 78 77 80 82 80 74 67 61 57 57 57 58 60 65 72 81 90 99 111 127 156 181 194 200 204 202 199 200 207 214 220 223 228 231 235 237 241 243 244 241 239 240
98 83 79 81 84 82 77 70 62 57 56 58 59 61 64 70 77 87 95 104 114 134 166 194 207 214 216 215 213 213 213 215 216 219 225 229 237 240 241 239 236 236 237
121 95 83 81 84 83 80 73 66 60 58 60 62 64 66 69 74 81 92 102 113 130 158 190 209 220 225 224 221 219 216 216 216 216 218 226 227 225 228 229 229 230 231
140 115 95 86 84 82 80 74 67 62 59 61 65 67 68 70 73 78 87 103 122 141 171 201 217 227 234 233 227 220 217 215 215 211 209 207 208 209 219 225 226 225 229
154 138 115 98 88 82 79 76 70 64 61 62 66 69 70 72 72 74 79 92 118 151 179 207 225 235 243 240 229 220 216 215 214 212 205 207 209 200 217 219 220 227 224
163 157 137 116 97 84 79 76 71 65 61 60 64 69 71 73 73 73 73 78 91 126 176 210 231 249 256 244 223 214 212 212 211 214 214 215 212 204 208 218 222 215 214
168 171 162 143 121 95 78 69 65 59 54 54 58 65 71 74 75 74 72 72 77 85 112 223 248 265 273 251 212 204 205 208 212 213 215 218 217 217 221 221 222 211 211
169 182 184 181 180 168 99 62 54 48 42 36 40 53 65 70 74 73 71 69 69 68 62 33 302 291 298 249 201 199 203 206 212 215 219 225 228 229 233 233 233 221 215
157 193 204 210 223 235 249 271 318 355 4 3 5 13 31 51 65 69 68 65 63 58 50 39 19 350 334 232 194 198 205 209 212 217 223 228 231 233 238 241 240 230 221
99 200 227 233 239 247 255 264 278 289 306 319 324 326 338 358 31 53 58 57 54 48 42 39 35 18 334 241 210 208 212 216 218 222 225 229 232 235 239 238 232 226 225
26 309 272 261 256 257 260 264 270 275 282 290 295 296 296 298 302 330 10 25 33 34 33 34 36 33 326 260 240 230 225 223 224 227 229 231 232 234 235 232 226 225 223
317 307 295 285 274 268 266 266 267 271 273 277 278 278 279 276 276 276 289 312 338 359 7 15 21 18 281 263 255 248 241 234 232 233 232 232 231 232 228 229 227 225 224
287 290 291 289 283 276 271 268 268 269 269 269 270 270 269 268 267 267 270 275 284 300 313 326 322 307 276 263 258 253 251 246 243 241 238 236 236 233 230 230 230 230 231
275 279 282 286 287 285 278 272 269 268 267 264 264 264 263 262 262 262 264 266 269 276 283 285 288 286 279 274 267 262 258 255 251 249 247 244 242 239 238 237 235 236 237
274 278 283 284 285 285 282 276 270 266 265 264 262 260 259 258 258 259 261 263 265 268 273 276 277 282 283 281 279 275 268 263 259 255 253 251 249 248 247 246 244 243 243
276 280 282 286 286 285 282 278 272 267 265 263 260 258 256 256 256 258 259 261 262 265 269 272 274 282 286 286 283 280 276 271 266 263 260 257 254 252 251 251 250 247 247
277 280 283 285 286 285 283 279 275 270 265 261 259 256 254 254 254 256 258 260 261 264 264 268 272 278 283 285 283 282 280 277 273 269 265 262 259 257 255 253 252 251 250
276 278 281 283 285 287 285 281 278 274 268 261 256 254 253 252 252 254 256 258 259 259 259 263 269 275 279 281 281 281 281 279 278 274 271 267 264 260 257 254 253 252 252
271 273 276 279 282 284 284 282 279 276 271 264 257 254 252 252 252 252 253 255 258 259 261 263 270 274 277 280 282 278 278 278 279 278 276 273 269 264 260 257 254 253 252
267 269 271 273 276 279 281 280 278 276 272 267 260 254 252 251 251 251 252 253 256 258 260 263 269 272 276 277 281 278 277 277 277 277 278 276 273 268 263 258 256 253 252
263 263 266 268 270 274 276 277 276 274 271 267 262 256 252 250 249 250 252 253 255 256 258 263 267 271 275 276 278 279 279 279 277 274 276 277 275 271 265 259 256 253 252
259 261 263 263 265 268 270 272 272 273 270 266 263 258 253 251 248 249 253 254 255 256 260 266 269 272 275 276 275 277 278 279 279 276 276 277 276 272 266 261 257 254 252
256 256 257 259 260 263 266 268 268 268 265 263 261 259 255 251 247 248 252 255 257 259 264 268 271 273 275 276 276 276 275 277 277 277 276 277 275 272 266 262 258 254 251
255 254 253 255 256 259 261 262 263 264 264 261 259 257 254 250 246 245 250 255 260 264 267 269 272 273 274 275 275 275 275 275 274 275 276 276 275 273 266 261 256 254 251
255 253 251 252 254 256 258 260 261 262 260 258 256 257 255 251 247 246 249 254 260 264 267 271 272 273 273 274 275 275 274 274 273 274 275 275 275 273 265 259 254 252 251
Height
5908 5908 5907 5907 5906 5906 5906 5906 5905 5904 5902 5901 5899 5898 5897 5897 5896 5896 5896 5896 5897 5897 5897 5898 5898 5899 5899 5900 5901 5903 5904 5906 5907 5908 5909 5910 5911 5912 5913 5913 5914 5915 5915
5909 5909 5908 5908 5907 5907 5907 5907 5906 5905 5904 5902 5901 5899 5898 5897 5897 5897 5896 5897 5897 5897 5897 5897 5898 5899 5899 5900 5901 5902 5903 5905 5906 5907 5908 5909 5909 5910 5911 5911 5912 5913 5913
5910 5909 5909 5909 5908 5908 5908 5908 5908 5907 5905 5904 5902 5900 5899 5898 5897 5897 5897 5897 5897 5897 5897 5897 5897 5898 5898 5899 5900 5902 5903 5904 5905 5906 5906 5907 5907 5908 5908 5909 5910 5911 5912
5910 5910 5910 5910 5909 5909 5909 5909 5909 5908 5907 5905 5904 5902 5900 5899 5898 5897 5897 5897 5897 5896 5896 5896 5897 5897 5898 5898 5899 5900 5902 5903 5904 5905 5905 5906 5906 5907 5907 5908 5908 5909 5910
5910 5910 5910 5910 5910 5910 5910 5910 5910 5909 5908 5907 5905 5903 5901 5900 5899 5898 5897 5897 5896 5896 5896 5896 5896 5896 5897 5897 5898 5899 5900 5902 5903 5904 5905 5905 5905 5906 5906 5906 5907 5907 5908
5909 5910 5910 5911 5911 5911 5911 5911 5910 5910 5909 5908 5907 5905 5903 5901 5900 5899 5898 5897 5896 5896 5896 5895 5895 5895 5896 5896 5896 5897 5899 5900 5902 5903 5904 5904 5905 5905 5906 5906 5906 5906 5907
5909 5910 5910 5911 5911 5911 5911 5911 5911 5910 5910 5909 5908 5906 5905 5903 5901 5899 5898 5897 5897 5896 5895 5895 5895 5895 5895 5894 5895 5895 5897 5899 5900 5902 5903 5903 5904 5905 5905 5905 5905 5905 5906
5909 5910 5910 5910 5911 5911 5911 5911 5911 5910 5910 5909 5908 5907 5905 5904 5902 5901 5899 5898 5897 5896 5895 5895 5894 5894 5894 5894 5894 5894 5896 5897 5899 5900 5902 5903 5903 5904 5904 5905 5905 5905 5905
5909 5909 5910 5910 5910 5910 5910 5910 5910 5910 5909 5909 5908 5907 5906 5905 5903 5902 5900 5899 5897 5896 5895 5894 5894 5894 5893 5893 5893 5894 5895 5896 5898 5899 5900 5902 5902 5903 5904 5904 5904 5904 5905
5909 5909 5909 5909 5910 5910 5910 5910 5909 5909 5909 5908 5908 5907 5906 5905 5903 5902 5901 5899 5898 5896 5895 5894 5894 5894 5893 5893 5893 5894 5895 5896 5897 5898 5899 5900 5901 5902 5902 5903 5903 5903 5904
5908 5908 5909 5909 5909 5909 5909 5909 5908 5908 5907 5907 5906 5906 5905 5904 5903 5902 5901 5899 5898 5897 5895 5894 5894 5894 5893 5893 5893 5894 5894 5895 5896 5897 5898 5899 5900 5900 5901 5901 5902 5902 5903
5908 5908 5908 5908 5908 5907 5907 5907 5907 5906 5906 5905 5905 5904 5903 5903 5902 5901 5900 5899 5898 5897 5895 5894 5893 5893 5893 5893 5893 5893 5894 5894 5895 5896 5896 5897 5898 5899 5899 5900 5900 5901 5901
5907 5907 5906 5906 5906 5906 5905 5905 5904 5904 5903 5903 5903 5902 5902 5901 5901 5900 5899 5898 5897 5896 5895 5894 5893 5893 5892 5892 5892 5893 5893 5893 5894 5894 5895 5895 5896 5897 5897 5898 5899 5900 5900
5905 5905 5905 5904 5904 5903 5903 5902 5902 5901 5901 5901 5900 5900 5900 5899 5899 5898 5898 5897 5896 5895 5894 5894 5893 5892 5891 5891 5891 5891 5891 5892 5892 5892 5893 5894 5894 5895 5896 5897 5898 5898 5898
5902 5902 5902 5902 5901 5901 5900 5899 5899 5898 5898 5897 5897 5897 5897 5897 5896 5896 5895 5895 5895 5894 5893 5892 5892 5891 5890 5890 5889 5889 5890 5890 5890 5891 5891 5892 5892 5893 5894 5894 5895 5896 5897
5899 5899 5898 5898 5897 5897 5896 5895 5895 5894 5894 5894 5893 5894 5894 5893 5893 5893 5893 5892 5892 5892 5891 5891 5890 5890 5889 5888 5888 5888 5888 5888 5888 5888 5888 5889 5889 5890 5891 5891 5892 5893 5894
5894 5894 5894 5893 5893 5892 5891 5891 5890 5889 5889 5889 5889 5889 5890 5890 5890 5890 5889 5889 5889 5889 5889 5889 5888 5888 5887 5887 5886 5886 5885 5885 5884 5884 5884 5885 5885 5886 5886 5887 5888 5889 5890
5890 5890 5889 5889 5888 5887 5886 5885 5885 5885 5885 5885 5885 5885 5885 5886 5886 5886 5886 5885 5885 5885 5885 5885 5885 5885 5884 5884 5883 5883 5882 5882 5881 5881 5880 5880 5880 5881 5881 5882 5883 5884 5885
5885 5885 5885 5884 5883 5882 5881 5880 5880 5880 5880 5880 5880 5881 5881 5881 5881 5882 5881 5881 5881 5881 5881 5882 5881 5881 5881 5880 5880 5879 5879 5879 5878 5877 5876 5876 5875 5875 5876 5876 5877 5878 5879
5879 5879 5879 5878 5877 5876 5875 5874 5874 5874 5874 5875 5875 5876 5876 5876 5877 5877 5877 5876 5877 5877 5877 5878 5877 5877 5877 5876 5876 5875 5875 5875 5874 5873 5872 5871 5870 5870 5870 5871 5871 5872 5873
5872 5872 5872 5872 5872 5871 5870 5869 5868 5868 5868 5869 5869 5870 5870 5871 5871 5871 5871 5871 5872 5872 5873 5873 5873 5872 5872 5871 5871 5871 5870 5870 5869 5868 5867 5866 5866 5865 5865 5865 5866 5866 5868
5865 5865 5866 5866 5866 5865 5864 5862 5862 5861 5861 5862 5862 5863 5863 5864 5865 5865 5866 5866 5866 5867 5868 5868 5868 5867 5866 5866 5865 5865 5865 5864 5863 5863 5862 5861 5860 5859 5859 5859 5860 5861 5862
5857 5857 5858 5858 5858 5858 5857 5856 5855 5854 5854 5854 5854 5855 5856 5857 5858 5859 5860 5860 5861 5862 5862 5862 5862 5862 5861 5860 5860 5860 5859 5858 5857 5857 5856 5855 5854 5854 5853 5854 5854 5855 5856
5847 5848 5849 5850 5850 5850 5850 5849 5847 5846 5845 5845 5846 5847 5849 5850 5851 5852 5854 5854 5855 5855 5856 5856 5856 5855 5855 5854 5853 5853 5853 5852 5851 5850 5850 5849 5848 5848 5848 5848 5848 5849 5850
5837 5838 5839 5840 5841 5842 5842 5842 5840 5838 5836 5837 5838 5839 5841 5843 5844 5846 5847 5848 5849 5849 5849 5849 5849 5849 5848 5848 5847 5846 5846 5845 5844 5843 5843 5842 5842 5841 5842 5842 5843 5843 5844
5826 5828 5829 5830 5832 5833 5834 5834 5834 5831 5829 5829 5830 5831 5833 5835 5837 5838 5840 5841 5842 5843 5843 5843 5843 5843 5842 5841 5841 5840 5839 5838 5838 5837 5836 5835 5835 5834 5835 5836 5837 5838 5839